DW9004 Weather Reports


Display with metric or nautical units.
time (UTC)temp
F
wind
direction
speed
MPH
gust
MPH
rain 1hr
in
rain 24hr
in
rain mn
in
humidity
%
barometer
mb
20260510043145 61 355 0.0 1.0 0.00 0.00 0.00 49 1011.9
20260510041558 62 358 0.0 2.0 0.00 0.00 0.00 47 1012.0
20260510040057 62 351 0.0 1.0 0.00 0.00 0.00 47 1012.0
20260510034556 63 351 0.0 2.0 0.00 0.00 0.00 48 1011.8
20260510033056 63 8 0.0 0.0 0.00 0.00 0.00 47 1011.8
20260510031604 66 340 0.0 1.0 0.00 0.00 0.00 44 1011.8
20260510030031 68 340 0.0 2.0 0.00 0.00 0.00 40 1011.8
20260510024532 69 355 1.0 2.0 0.00 0.00 0.00 39 1011.7
20260510023041 70 43 0.0 1.0 0.00 0.00 0.00 36 1011.7
20260510021521 71 43 0.0 1.0 0.00 0.00 0.00 36 1011.8
20260510020017 72 44 0.0 2.0 0.00 0.00 0.00 34 1011.9
20260510014515 74 86 0.0 1.0 0.00 0.00 0.00 34 1011.9
20260510013013 74 85 0.0 1.0 0.00 0.00 0.00 33 1012.1
20260510011609 76 358 0.0 2.0 0.00 0.00 0.00 32 1012.2
20260510010150 76 69 0.0 3.0 0.00 0.00 0.00 31 1012.2
20260510004550 77 52 0.0 6.0 0.00 0.00 0.00 31 1012.4
20260510003047 79 94 0.0 3.0 0.00 0.00 0.00 29 1012.4
20260510001544 79 110 0.0 6.0 0.00 0.00 0.00 28 1012.6
20260510000048 79 88 1.0 8.0 0.00 0.00 0.00 27 1012.6
20260509234541 79 73 1.0 5.0 0.00 0.00 0.00 29 1012.7
20260509233040 78 67 3.0 8.0 0.00 0.00 0.00 29 1012.8
20260509231528 80 114 1.0 4.0 0.00 0.00 0.00 26 1012.9
20260509230024 78 94 2.0 5.0 0.00 0.00 0.00 28 1013.1
20260509224631 78 197 1.0 7.0 0.00 0.00 0.00 29 1013.3
20260509223016 78 92 1.0 5.0 0.00 0.00 0.00 28 1013.5
20260509221511 78 32 0.0 5.0 0.00 0.00 0.00 29 1013.8
20260509220007 78 97 1.0 8.0 0.00 0.00 0.00 28 1013.9
20260509214502 79 127 2.0 6.0 0.00 0.00 0.00 29 1014.2
20260509213116 77 163 2.0 6.0 0.00 0.00 0.00 30 1014.3
20260509211605 77 64 1.0 8.0 0.00 0.00 0.00 32 1014.3
20260509210034 77 161 3.0 8.0 0.00 0.00 0.00 32 1014.5
20260509204516 77 85 3.0 9.0 0.00 0.00 0.00 32 1014.7
20260509203031 77 40 0.0 7.0 0.00 0.00 0.00 32 1014.8
20260509201508 77 92 3.0 8.0 0.00 0.00 0.00 32 1015.0
20260509200004 75 106 3.0 7.0 0.00 0.00 0.00 34 1015.1
20260509194601 76 88 1.0 5.0 0.00 0.00 0.00 35 1015.4
20260509193057 74 110 3.0 7.0 0.00 0.00 0.00 34 1015.6
20260509191552 74 159 3.0 5.0 0.00 0.00 0.00 35 1015.7
20260509190052 74 24 2.0 6.0 0.00 0.00 0.00 35 1015.9
20260509184530 73 79 5.0 8.0 0.00 0.00 0.00 35 1016.0
20260509183027 75 322 0.0 3.0 0.00 0.00 0.00 36 1016.2
20260509181522 73 22 0.0 4.0 0.00 0.00 0.00 37 1016.4
20260509180018 71 91 1.0 8.0 0.00 0.00 0.00 39 1016.5
20260509174514 72 36 1.0 3.0 0.00 0.00 0.00 39 1016.7
20260509173009 73 68 0.0 3.0 0.00 0.00 0.00 37 1016.8
20260509171504 72 163 0.0 2.0 0.00 0.00 0.00 39 1017.0
20260509170100 71 87 0.0 3.0 0.00 0.00 0.00 38 1016.9
20260509164544 71 128 0.0 4.0 0.00 0.00 0.00 39 1016.9
20260509163142 69 206 1.0 4.0 0.00 0.00 0.00 40 1016.9
20260509161535 69 203 1.0 6.0 0.00 0.00 0.00 43 1017.1
20260509160032 69 235 0.0 4.0 0.00 0.00 0.00 43 1017.2
20260509154527 68 157 0.0 3.0 0.00 0.00 0.00 45 1017.2
20260509153024 66 238 0.0 4.0 0.00 0.00 0.00 49 1017.2
20260509151521 64 166 0.0 2.0 0.00 0.00 0.00 53 1017.3
20260509150016 61 241 0.0 1.0 0.00 0.00 0.00 64 1017.2
20260509144502 56 237 0.0 3.0 0.00 0.00 0.00 68 1017.1
20260509143107 53 207 0.0 2.0 0.00 0.00 0.00 75 1017.1
20260509141553 51 212 0.0 2.0 0.00 0.00 0.00 77 1016.9
20260509140051 49 218 0.0 1.0 0.00 0.00 0.00 78 1016.9
20260509134552 47 225 0.0 0.0 0.00 0.00 0.00 78 1016.8
20260509133050 0 0.0 0.0 0.00 0.00 0.00 1016.6
20260509131537 0 0.0 0.0 0.00 0.00 0.00 1016.5
20260509130032 0 0.0 0.0 0.00 0.00 0.00 1016.4
20260509124513 47 328 3.0 4.0 0.00 0.00 0.00 74 1016.6
20260509123009 49 308 1.0 3.0 0.00 0.00 0.00 72 1016.6
20260509121509 49 102 1.0 5.0 0.00 0.00 0.00 74 1016.4
20260509120101 48 40 2.0 7.0 0.00 0.00 0.00 75 1016.5
20260509114600 48 332 5.0 7.0 0.00 0.00 0.00 74 1016.3
20260509113052 50 297 2.0 4.0 0.00 0.00 0.00 71 1016.4
20260509111547 50 175 1.0 5.0 0.00 0.00 0.00 70 1016.4
20260509110042 52 17 5.0 7.0 0.00 0.00 0.00 66 1016.2
20260509104538 52 252 1.0 6.0 0.00 0.00 0.00 67 1016.1
20260509103019 52 300 6.0 9.0 0.00 0.00 0.00 65 1015.9
20260509100014 53 306 3.0 8.0 0.00 0.00 0.00 65 1015.7
20260509094507 56 309 5.0 9.0 0.00 0.00 0.00 57 1015.7
20260509093002 59 288 3.0 14.0 0.00 0.00 0.00 51 1015.5
20260509091558 59 255 8.0 13.0 0.00 0.00 0.00 51 1015.5
20260509090054 -90 351 0.0 3.0 0.00 0.00 0.00 1 1015.3
20260509084553 -90 325 0.0 1.0 0.00 0.00 0.00 1 1015.2
20260509083048 -90 3 0.0 1.0 0.00 0.00 0.00 1 1015.2
20260509081541 66 104 0.0 2.0 0.00 0.00 0.00 23 1015.1
20260509080040 56 239 0.0 0.0 0.00 0.00 0.00 47 1014.7
20260509074528 56 244 1.0 6.0 0.00 0.00 0.00 51 1014.8
20260509073041 57 228 0.0 4.0 0.00 0.00 0.00 51 1014.9
20260509071521 56 2 0.0 2.0 0.00 0.00 0.00 51 1014.3
20260509070021 57 242 0.0 2.0 0.00 0.00 0.00 48 1014.2
20260509064515 58 198 0.0 3.0 0.00 0.00 0.00 47 1013.8
20260509063014 59 217 0.0 5.0 0.00 0.00 0.00 46 1013.4
20260509061512 60 84 0.0 1.0 0.00 0.00 0.00 42 1013.6
20260509060100 61 183 1.0 9.0 0.00 0.00 0.00 42 1013.5
20260509054605 60 267 2.0 4.0 0.00 0.00 0.00 42 1013.7
20260509053057 60 296 0.0 3.0 0.00 0.00 0.00 42 1013.4
20260509051602 58 86 0.0 1.0 0.00 0.00 0.00 44 1013.0
20260509050053 58 227 0.0 2.0 0.00 0.00 0.00 43 1013.0
20260509044549 60 138 0.0 0.0 0.00 0.00 0.00 40 1013.0